Regional Weather Roundup
Issued by NWS

Home | Current Version | Previous Version | Graphics & Text | Print | Product List | Glossary On
Versions: 1 2 3 4 5 6 7 8 9 10 11 12 13 14 15 16 17 18 19 20 21 22 23 24 25 26 27 28 29 30 31 32 33 34 35 36 37 38 39 40 41 42 43 44 45 46 47 48 49 50
502
ASUS43 KTOP 200708
RWRKS

WEATHER ROUNDUP FOR KANSAS
NATIONAL WEATHER SERVICE GOODLAND KS
100 AM CST TUE FEB 20 2018

NOTE:  "FAIR" INDICATES FEW OR NO CLOUDS BELOW 12,000 FEET WITH NO
SIGNIFICANT WEATHER AND/OR OBSTRUCTIONS TO VISIBILITY.

KSZ001>006-013>018-027>032-041>047-200800-
NORTHWEST KANSAS

CITY           SKY/WX    TMP DP  RH WIND       PRES   REMARKS
GOODLAND       CLOUDY     9   5  84 N15G25    29.80R WCI  -8
HAYS           LGT SNOW  18  16  92 MISG      29.86R FOG
HILL CITY      LGT SNOW  15  12  88 N18       29.88S FOG     WCI  -2
RUSSELL        CLOUDY    20  18  92 N17       29.85R FOG     WCI   5
$$

KSZ061>065-074>080-084>089-200800-
SOUTHWEST KANSAS

CITY           SKY/WX    TMP DP  RH WIND       PRES   REMARKS
DODGE CITY     FRZ RAIN  19  16  88 N16G26    29.77R FOG     WCI   4
ELKHART        CLEAR     23  19  83 NE13      29.68S WCI  11
GARDEN CITY    FRZ RAIN  17  15  92 NE24      29.77R FOG     WCI  -1
GREAT BEND     MIX PCPN  19  18  93 N16G31    29.84R FOG     WCI   5
LIBERAL        CLOUDY    26  17  68 NE16      29.72R WCI  14
PRATT          CLOUDY    23  21  91 N13       29.79R FOG     WCI  12
$$

KSZ066>073-081>083-090>101-200800-
SOUTHEAST KANSAS

CITY           SKY/WX    TMP DP  RH WIND       PRES   REMARKS
CHANUTE        CLOUDY    36  36 100 NW10      29.78R FOG     WCI  28
COFFEYVILLE    CLOUDY    40  40 100 E3        29.76F FOG
HUTCHINSON     CLOUDY    25  32 100 N8        29.79F HAZE
MEDICINE LODGE   N/A     28  28 100 N12       29.78R WCI  18
NEWTON         TSTM      27  25  93 N15       29.78F FOG     WCI  15
PARSONS        CLOUDY    39  39 100 CALM      29.76F
WICHITA INTL   CLOUDY    29  28  96 N13       29.78F WCI  19
WICHITA JABRA  CLOUDY    28  28 100 N9        29.78F FOG
WICHITA MCCONL FRZ DRZL  28  28 100 N9        29.77  FOG
WINFIELD       CLOUDY    32  32 100 N9        29.78S FOG
$$

KSZ007>012-019>026-033>040-048>060-102>105-200800-
NORTHEAST KANSAS

CITY           SKY/WX    TMP DP  RH WIND       PRES   REMARKS
CONCORDIA      CLOUDY    19  18  95 NW12      29.87R FOG     WCI   7
EMPORIA        CLOUDY    28  27  96 N9        29.81R FOG
LAWRENCE       CLOUDY    30  30 100 NW10      29.85R FOG     WCI  21
MANHATTAN      CLOUDY    28  24  85 NE10      29.83R FOG     WCI  19
MARYSVILLE     FLURRIES  23  21  93 N6        29.85S
OLATHE IND     CLOUDY    31  31 100 N7        29.80S FOG
OLATHE EXE     CLOUDY    31  31 100 NE6       29.77F FOG
SALINA         CLOUDY    24  22  91 N14       29.86R WCI  12
TOPEKA BILLARD FRZ RAIN  29  28  96 NW7       29.85R
TOPEKA FORBES  FRZ RAIN  29  27  92 NW10      29.85R FOG     WCI  20
$$




USA.gov is the U.S. government's official web portal to all federal, state and local government web resources and services.